Temperature
21 19 19 20 20 19 19 18 18 19 21 19 18 18 19 21 21 20 20 20 20 19 20 19 19 18 16 15 13 12 12 11 11 10 10 10 10 10 9 9 9 9 9 8
20 19 20 20 20 19 18 18 18 19 20 19 17 18 19 21 21 21 20 19 19 18 18 18 18 17 16 15 14 12 12 11 11 12 12 11 11 10 10 9 9 9 9 8
19 21 20 20 19 19 19 18 18 17 17 18 18 18 21 21 21 21 20 19 18 17 17 17 17 17 16 14 14 13 12 11 11 11 10 9 8 8 8 9 10 9 9 9
20 20 19 19 19 19 18 19 17 17 15 16 17 16 19 20 19 18 19 18 17 17 17 17 16 16 15 14 13 12 12 11 10 10 10 9 10 11 12 11 11 10 9 8
19 20 19 18 19 17 18 17 16 16 15 15 17 17 18 20 19 18 18 18 17 17 16 16 16 15 15 14 13 13 12 11 10 10 10 9 10 11 10 9 9 8 8 8
19 19 18 18 18 17 17 16 16 16 15 15 19 18 18 19 19 18 18 18 17 16 16 16 15 15 14 14 14 13 12 12 11 10 10 9 10 10 9 8 8 8 7 7
20 19 18 17 17 18 17 16 16 16 15 17 18 18 17 20 19 18 18 18 17 16 15 15 15 14 14 14 14 13 13 12 11 10 10 10 10 9 8 8 8 7 6 6
19 19 18 17 18 16 17 17 16 15 16 17 18 17 19 20 20 19 18 17 17 16 15 15 14 14 14 13 13 13 13 13 12 11 11 10 9 9 9 9 8 7 7 6
18 18 17 17 17 17 17 17 17 15 16 15 17 19 20 20 19 18 18 17 16 15 15 14 14 14 13 13 13 13 13 13 12 12 11 11 10 10 9 9 8 7 7 6
18 17 18 16 15 15 16 16 15 15 15 15 17 18 18 19 18 18 17 17 16 15 14 14 13 13 13 13 13 12 12 12 12 12 11 11 11 10 9 9 8 8 8 7
18 17 17 16 15 17 14 15 15 15 16 14 14 16 19 19 18 17 16 16 15 14 14 14 13 13 12 12 12 12 12 12 11 11 11 10 10 9 9 8 8 8 7 6
17 16 16 17 17 16 17 17 16 15 15 15 14 15 19 19 18 17 16 16 15 14 14 13 13 12 12 12 11 11 11 11 10 10 10 9 9 9 8 8 8 7 7 6
16 15 15 16 15 15 15 16 16 15 14 13 13 14 19 18 17 16 16 15 15 14 13 13 12 12 11 11 11 10 10 10 9 9 9 9 8 8 8 8 8 7 6 6
15 14 15 15 15 16 16 16 16 14 13 13 13 15 17 17 16 15 15 14 14 13 13 12 11 11 10 10 10 9 9 9 8 8 8 8 8 7 7 7 7 6 6 5
14 13 14 15 16 16 15 15 15 14 14 14 14 15 16 15 14 14 14 13 13 13 12 11 11 10 10 9 9 9 8 8 8 7 7 7 7 7 6 6 6 5 5 5
13 13 13 13 14 15 14 15 15 14 14 14 14 14 15 14 14 13 13 12 12 12 11 10 10 9 9 8 8 7 7 7 7 6 6 6 6 5 5 5 4 4 4 3
13 13 12 11 13 13 12 14 15 15 15 15 14 14 13 12 12 12 12 12 11 10 10 9 9 8 8 7 7 7 6 6 6 6 5 5 4 4 4 4 3 3 2 2
13 12 11 10 11 9 13 16 16 15 15 14 13 13 12 12 12 12 12 10 10 9 9 8 8 7 7 6 6 6 6 5 5 5 4 4 4 3 3 3 2 2 1 1
11 12 10 9 9 11 14 14 14 13 13 13 12 12 12 11 10 11 11 9 8 8 8 7 7 6 6 6 5 5 5 4 4 3 3 3 3 2 2 2 1 1 1 0
9 10 9 9 8 8 13 13 13 12 11 11 11 10 10 9 7 8 9 8 8 7 7 6 6 6 5 5 5 4 4 3 3 2 2 2 2 1 1 1 0 0 0 -0
9 8 8 8 8 9 13 12 12 11 10 11 11 10 9 8 7 8 7 7 7 6 6 5 5 5 4 4 3 3 3 2 2 1 1 1 1 1 0 -0 -0 -0 -1 -1
10 9 8 8 8 9 12 12 11 10 11 10 9 9 8 8 7 7 6 6 6 5 5 5 4 4 4 3 2 2 1 1 1 1 1 0 0 -0 -0 -1 -1 -1 -1 -2
11 12 11 10 10 13 13 12 11 10 9 8 8 7 7 6 6 6 5 5 5 4 4 4 3 3 3 2 1 1 1 0 0 -0 -0 -0 -0 -1 -1 -1 -1 -2 -2 -2
12 12 11 10 11 12 12 11 10 9 8 7 7 6 6 5 5 4 4 4 4 4 3 3 2 2 2 1 1 0 -0 -0 -0 -1 -1 -1 -1 -1 -1 -2 -2 -2 -3 -3
10 10 9 9 10 11 10 9 8 7 6 6 5 5 4 4 4 4 3 3 3 3 2 2 1 1 1 0 -0 -0 -1 -1 -1 -1 -1 -1 -2 -2 -2 -2 -3 -3 -3 -3
9 9 8 8 8 7 7 7 6 5 5 4 4 4 4 3 3 3 3 2 2 2 2 1 1 0 -0 -0 -0 -1 -1 -1 -1 -2 -2 -2 -2 -2 -2 -3 -3 -3 -3 -3
Wind_Speed
6 5 7 6 6 7 9 10 14 15 10 7 11 18 20 15 6 6 6 6 5 6 6 2 9 13 14 14 14 16 16 16 14 12 13 13 13 10 9 12 19 23 23 24
7 8 4 5 5 6 9 12 14 12 10 12 14 16 15 5 2 3 6 8 8 8 8 5 3 9 12 13 13 14 15 16 15 13 12 9 9 8 9 8 15 22 23 24
10 4 2 4 8 10 10 10 9 10 12 10 8 10 2 6 9 9 9 9 8 8 7 7 2 5 8 10 13 12 14 14 15 12 7 6 6 6 9 11 13 16 23 24
7 1 2 5 8 7 8 5 7 9 9 6 7 6 6 6 10 10 10 9 9 8 7 6 3 3 6 8 9 11 11 12 13 13 11 12 13 16 17 12 11 12 19 21
6 2 2 6 4 4 6 9 9 8 7 7 6 5 7 4 8 8 8 8 8 8 7 6 3 1 4 6 7 9 10 11 12 13 15 14 16 15 10 10 12 14 14 18
11 2 1 3 2 3 7 9 12 6 3 5 2 2 6 2 6 6 6 7 8 9 9 8 5 2 1 4 5 7 9 10 11 13 14 16 18 15 13 13 13 13 12 14
5 8 4 1 5 5 4 6 5 1 3 3 2 3 7 2 7 6 5 6 7 8 8 7 7 4 1 3 5 6 8 10 10 12 14 16 18 17 17 16 14 13 13 14
5 3 6 5 1 4 4 3 4 4 5 6 5 5 5 3 7 7 6 6 7 8 7 7 6 6 4 1 4 6 8 10 10 12 14 14 15 14 15 16 15 15 14 14
5 2 4 3 2 2 4 1 3 3 7 6 6 7 5 3 6 6 6 6 7 7 7 7 6 6 5 3 2 5 8 9 10 12 12 13 15 15 17 16 15 15 15 12
5 6 3 5 3 4 4 6 3 4 4 6 7 7 3 3 4 5 5 6 6 7 6 6 5 5 4 3 3 4 6 8 9 10 11 11 13 14 15 14 17 17 16 14
4 5 3 5 7 7 6 4 5 5 5 4 6 6 4 5 3 4 5 6 5 5 4 4 5 6 6 5 5 5 6 6 7 7 8 10 11 12 12 14 16 16 15 14
1 3 6 7 2 4 1 4 4 4 6 6 7 9 7 2 4 6 6 6 4 3 3 4 5 7 7 7 8 7 6 6 6 6 7 8 10 10 11 13 14 13 14 14
1 3 5 3 2 2 2 5 6 6 5 6 7 9 5 6 8 7 6 6 5 5 4 4 6 7 8 9 9 8 7 7 7 6 7 9 9 10 11 12 12 12 13 13
2 4 7 8 10 7 8 9 8 8 8 10 13 17 17 15 10 7 7 7 7 6 5 5 6 8 9 9 9 9 8 8 8 7 8 9 10 10 11 11 11 11 11 12
3 6 9 13 14 13 15 17 14 14 15 17 20 21 20 11 7 7 9 9 9 8 8 8 9 9 9 10 10 9 10 9 8 9 10 11 11 11 11 11 11 11 11 12
4 5 8 12 13 14 18 20 18 17 16 17 19 18 7 5 7 8 10 11 10 9 9 10 11 11 11 11 11 10 10 10 9 10 11 12 12 12 11 11 11 11 11 11
6 5 5 7 8 11 11 12 12 8 8 9 11 7 5 7 8 9 10 10 9 10 11 11 11 11 11 11 11 11 10 10 10 11 12 13 13 12 11 11 10 11 11 11
7 6 4 5 6 9 10 6 5 5 6 7 7 6 7 7 8 8 8 9 11 12 12 11 11 11 10 10 11 11 10 11 11 12 13 13 11 11 11 11 11 11 10 10
3 5 4 3 6 11 10 5 4 4 5 5 5 7 9 10 10 7 8 10 11 11 11 11 10 11 11 12 11 11 11 12 12 14 13 12 11 12 12 12 13 11 11 11
2 3 4 5 5 7 6 2 3 4 4 6 8 9 10 11 10 8 10 11 12 11 10 11 11 11 12 12 11 12 14 14 14 14 12 12 12 13 13 14 13 11 10 11
4 4 6 7 7 9 4 2 2 2 4 6 8 9 9 8 8 11 12 12 11 11 11 11 12 11 11 12 12 14 15 15 14 13 13 12 12 13 14 13 12 11 10 10
6 6 7 6 7 8 1 2 1 5 8 9 9 9 10 10 11 12 12 12 12 11 11 12 12 12 12 12 13 16 16 16 15 14 14 13 12 12 12 13 12 11 10 10
7 6 4 6 7 4 4 5 6 7 8 8 9 10 10 11 12 12 11 11 11 11 11 11 13 14 13 12 13 17 18 16 15 14 14 13 13 12 12 12 13 11 9 9
5 5 6 7 7 8 9 9 9 10 10 10 10 10 10 11 12 13 12 11 12 11 12 12 13 16 17 15 14 15 17 16 15 15 14 13 13 13 12 10 9 9 9 9
7 6 7 12 11 10 7 10 11 11 11 11 10 10 10 11 12 12 12 12 11 12 12 12 13 16 18 17 16 15 15 15 15 15 14 13 12 13 12 11 10 11 9 10
6 8 8 9 7 7 9 10 11 10 10 10 10 10 10 10 11 12 12 11 12 14 14 14 14 16 18 18 17 15 14 14 15 14 13 12 11 11 11 12 12 13 14 18
Wind_Direction
232 244 269 306 352 340 325 304 297 295 306 334 295 291 296 303 320 336 338 344 342 324 313 246 189 184 179 181 183 184 187 189 189 194 199 203 209 208 207 205 204 203 203 202
270 254 291 2 350 303 286 287 291 300 342 327 291 289 287 278 55 41 25 16 13 1 354 2 143 165 174 179 185 187 189 190 195 201 202 203 204 209 213 211 211 207 205 204
274 286 47 332 303 290 286 289 313 324 326 284 290 305 317 107 81 69 56 41 33 21 10 5 68 151 168 181 187 194 193 194 196 194 190 196 203 212 217 217 216 212 209 208
282 121 46 305 290 306 296 349 333 317 324 311 326 306 291 119 78 62 52 44 39 29 27 20 31 153 182 192 188 192 194 195 193 190 198 200 209 219 222 219 217 214 214 214
280 58 304 291 329 351 293 322 289 280 289 287 254 240 279 109 71 60 51 43 44 38 33 27 17 213 198 189 187 192 197 201 196 198 203 210 222 229 229 222 223 220 219 218
249 189 178 319 329 250 292 290 269 228 267 266 203 226 287 48 88 69 51 46 39 34 31 26 28 40 182 181 185 192 203 213 207 206 210 215 225 230 229 228 228 225 223 221
242 181 151 218 288 209 261 315 333 330 233 242 110 260 257 116 110 103 78 58 46 40 34 23 19 7 325 197 200 201 211 224 219 216 219 223 228 231 235 236 235 232 231 227
297 179 160 182 315 338 314 314 332 311 303 317 316 257 254 119 126 123 106 82 57 46 35 26 22 13 4 293 212 210 220 229 225 224 228 230 231 233 239 239 237 238 238 234
328 4 114 95 49 284 295 290 52 312 282 271 258 252 266 146 121 105 83 65 54 45 35 23 17 18 9 356 272 224 225 232 230 229 231 233 234 235 239 239 239 243 243 239
320 301 206 140 190 224 287 324 305 253 286 295 286 287 284 10 18 41 40 45 53 50 31 15 6 358 347 333 303 268 240 237 235 231 232 238 238 239 241 241 241 242 242 238
293 279 261 181 208 201 181 212 229 259 270 271 287 271 326 340 1 29 38 51 56 53 23 1 354 347 339 335 318 296 271 259 253 244 241 244 246 245 245 245 246 246 244 239
236 300 278 261 52 62 153 253 247 257 271 276 286 278 276 269 65 59 49 35 38 40 9 356 351 344 337 335 325 316 304 288 275 263 258 257 258 257 254 254 253 249 247 242
15 268 289 272 64 51 221 234 240 263 280 260 259 268 294 343 359 31 33 13 5 1 346 348 350 339 333 329 322 320 319 317 307 293 278 273 270 265 261 260 260 255 251 248
3 258 245 265 288 309 287 271 252 244 253 259 250 271 292 309 329 6 15 2 352 338 333 341 338 331 326 321 320 320 319 315 312 308 297 286 278 272 268 266 264 261 256 252
221 256 262 272 285 291 286 281 273 261 259 265 274 280 290 314 355 9 1 351 339 329 334 340 335 327 321 320 319 319 315 311 311 307 299 291 286 282 277 274 270 266 261 258
216 264 281 276 277 280 279 274 270 267 263 264 273 280 301 18 16 0 349 334 324 329 339 337 329 323 321 319 317 315 311 308 308 303 296 293 289 285 279 275 273 270 267 262
209 226 279 279 299 306 277 261 255 242 243 261 276 297 5 6 4 348 327 320 329 340 336 328 323 320 318 315 313 311 306 307 306 299 295 293 290 287 283 281 280 276 272 266
249 261 269 286 310 252 247 277 275 272 283 301 309 347 14 1 343 320 316 343 345 337 329 323 319 316 312 310 309 306 308 308 304 299 295 293 294 295 295 293 288 284 278 271
256 222 233 251 267 276 272 297 343 326 304 352 357 357 351 341 329 318 352 357 335 325 321 317 315 313 312 310 310 313 311 307 303 299 297 299 302 302 300 296 290 287 283 277
345 233 229 228 241 256 278 60 18 351 288 25 10 351 342 346 328 316 343 334 324 320 317 315 313 311 311 311 316 316 310 306 302 300 301 303 303 301 298 294 292 289 283 279
157 186 217 237 246 263 302 105 20 294 303 357 352 342 340 327 301 311 325 322 317 314 314 314 313 311 309 313 317 310 306 302 302 303 303 301 298 296 295 295 293 290 286 282
187 200 206 206 223 256 90 47 341 305 336 347 348 345 333 319 315 317 318 317 316 315 314 314 313 309 309 312 312 307 304 303 303 302 301 300 298 298 300 297 295 291 288 285
217 224 229 213 228 288 25 351 340 354 349 350 344 336 328 320 317 318 317 315 313 312 312 313 312 310 309 309 307 304 304 305 305 304 302 301 301 299 298 297 296 295 289 284
266 263 265 279 286 319 334 344 356 359 350 344 339 331 328 319 317 314 313 312 312 311 313 312 311 310 309 308 303 300 303 305 305 304 303 303 303 301 299 294 290 289 287 283
288 312 294 285 297 311 332 355 355 350 345 338 331 326 322 316 312 312 312 312 313 312 307 306 306 305 306 307 306 305 306 307 306 305 304 303 301 300 300 294 288 285 275 276
253 265 272 287 331 329 328 348 353 343 335 329 324 321 320 315 311 311 310 308 308 307 306 306 304 304 306 307 306 307 308 308 308 307 305 303 302 301 298 296 294 284 280 287
Height
1522 1525 1525 1520 1518 1519 1520 1521 1519 1509 1499 1500 1499 1492 1481 1477 1476 1474 1473 1472 1471 1470 1470 1469 1469 1471 1474 1477 1480 1482 1484 1486 1489 1490 1491 1492 1494 1496 1497 1498 1499 1501 1502 1503
1522 1523 1518 1516 1517 1518 1519 1520 1515 1505 1498 1501 1496 1488 1478 1474 1474 1474 1474 1473 1471 1469 1468 1468 1468 1469 1471 1473 1476 1478 1479 1481 1482 1483 1485 1487 1489 1490 1491 1492 1492 1492 1493 1494
1522 1517 1516 1517 1518 1518 1516 1516 1513 1512 1505 1497 1495 1490 1477 1473 1473 1475 1475 1474 1473 1471 1469 1468 1468 1468 1470 1471 1472 1474 1475 1476 1477 1479 1482 1483 1483 1483 1483 1482 1482 1483 1484 1485
1517 1514 1516 1518 1518 1516 1518 1510 1512 1513 1516 1512 1504 1512 1486 1475 1476 1476 1477 1476 1474 1473 1471 1469 1469 1468 1468 1468 1469 1470 1471 1472 1473 1474 1475 1475 1474 1472 1471 1473 1474 1475 1476 1476
1517 1513 1516 1518 1516 1516 1514 1510 1511 1512 1516 1516 1503 1506 1491 1475 1479 1479 1478 1477 1476 1474 1472 1471 1469 1468 1467 1466 1466 1466 1467 1468 1469 1469 1469 1469 1467 1466 1467 1468 1467 1467 1466 1466
1513 1513 1515 1515 1515 1515 1513 1511 1505 1508 1514 1519 1497 1501 1497 1480 1479 1479 1478 1478 1477 1475 1474 1472 1470 1468 1467 1466 1465 1464 1464 1464 1464 1464 1464 1463 1461 1461 1461 1460 1458 1458 1457 1456
1508 1512 1514 1516 1516 1512 1514 1518 1518 1518 1522 1510 1495 1498 1494 1476 1474 1476 1477 1478 1477 1476 1474 1472 1470 1468 1466 1465 1463 1462 1461 1460 1460 1460 1459 1457 1456 1455 1454 1453 1452 1451 1449 1446
1515 1516 1514 1514 1515 1519 1515 1518 1528 1532 1524 1511 1496 1498 1483 1470 1471 1474 1476 1476 1476 1475 1474 1472 1470 1468 1466 1464 1462 1461 1459 1458 1457 1455 1454 1453 1451 1449 1446 1445 1444 1442 1439 1437
1518 1516 1514 1513 1513 1516 1515 1513 1515 1524 1519 1518 1503 1486 1473 1468 1471 1473 1474 1474 1474 1474 1473 1472 1470 1468 1466 1464 1462 1460 1458 1455 1453 1451 1449 1447 1445 1442 1439 1437 1435 1433 1431 1429
1517 1520 1511 1514 1515 1516 1516 1517 1520 1523 1525 1525 1504 1492 1485 1474 1474 1473 1472 1472 1473 1473 1472 1471 1470 1468 1466 1464 1461 1459 1456 1453 1450 1448 1445 1442 1439 1436 1433 1430 1426 1423 1421 1420
1517 1521 1515 1515 1515 1511 1518 1518 1518 1518 1516 1524 1521 1502 1473 1472 1471 1471 1472 1472 1472 1471 1471 1470 1469 1467 1465 1462 1460 1457 1453 1450 1447 1443 1440 1437 1433 1430 1426 1422 1418 1415 1412 1410
1516 1520 1520 1509 1504 1504 1506 1508 1512 1521 1516 1510 1514 1499 1469 1467 1468 1470 1471 1471 1471 1470 1469 1468 1467 1465 1462 1460 1457 1453 1450 1446 1442 1438 1434 1430 1427 1423 1419 1414 1411 1407 1403 1400
1517 1522 1524 1513 1514 1511 1509 1507 1507 1510 1514 1514 1516 1498 1468 1466 1467 1469 1470 1470 1469 1468 1467 1466 1464 1462 1459 1456 1453 1449 1445 1441 1437 1433 1428 1424 1420 1415 1411 1406 1402 1398 1394 1390
1519 1520 1523 1523 1513 1508 1507 1505 1504 1508 1513 1508 1499 1486 1473 1470 1470 1469 1469 1468 1467 1466 1465 1463 1460 1458 1455 1452 1448 1444 1440 1435 1431 1426 1421 1417 1412 1407 1403 1398 1393 1389 1385 1380
1519 1521 1515 1510 1505 1503 1502 1500 1498 1499 1497 1498 1486 1481 1473 1471 1470 1469 1468 1467 1465 1464 1462 1460 1457 1454 1450 1447 1443 1438 1434 1429 1424 1419 1414 1409 1404 1399 1394 1389 1384 1379 1375 1370
1516 1518 1514 1511 1505 1502 1498 1491 1489 1488 1486 1483 1479 1475 1470 1469 1468 1468 1467 1466 1464 1461 1459 1456 1453 1450 1446 1441 1437 1432 1427 1423 1418 1412 1406 1401 1395 1390 1385 1380 1375 1370 1365 1361
1513 1515 1516 1514 1504 1503 1500 1483 1479 1478 1475 1476 1477 1473 1468 1468 1468 1468 1467 1465 1462 1459 1456 1453 1450 1446 1441 1436 1431 1426 1421 1416 1410 1404 1398 1393 1387 1381 1376 1371 1366 1361 1355 1351
1510 1512 1516 1517 1511 1516 1489 1472 1471 1471 1471 1471 1470 1469 1469 1469 1468 1468 1466 1463 1460 1457 1453 1449 1445 1440 1436 1431 1426 1420 1415 1409 1403 1397 1391 1386 1380 1374 1369 1363 1358 1352 1347 1342
1505 1510 1516 1518 1515 1499 1481 1474 1472 1474 1473 1471 1470 1470 1469 1467 1465 1464 1463 1461 1458 1454 1450 1445 1441 1435 1430 1425 1420 1414 1408 1402 1396 1390 1384 1379 1373 1367 1361 1355 1349 1344 1338 1333
1507 1508 1514 1514 1516 1510 1483 1476 1473 1476 1477 1473 1471 1470 1469 1466 1467 1463 1461 1458 1454 1450 1446 1441 1436 1431 1425 1420 1414 1407 1400 1394 1388 1383 1377 1372 1366 1360 1353 1347 1341 1336 1331 1325
1509 1512 1515 1514 1511 1495 1477 1476 1475 1483 1480 1473 1471 1470 1468 1467 1466 1460 1456 1453 1449 1445 1441 1436 1431 1425 1420 1414 1407 1400 1393 1387 1382 1376 1370 1364 1359 1353 1346 1340 1334 1329 1323 1318
1501 1505 1506 1506 1507 1498 1477 1476 1479 1479 1474 1471 1469 1468 1466 1463 1460 1456 1452 1448 1444 1440 1435 1431 1425 1419 1414 1408 1401 1392 1386 1380 1374 1368 1362 1356 1351 1345 1339 1333 1327 1322 1316 1311
1490 1489 1487 1488 1487 1476 1475 1475 1475 1474 1472 1470 1468 1466 1463 1459 1455 1452 1448 1443 1439 1435 1430 1425 1419 1412 1406 1400 1394 1386 1379 1373 1367 1360 1354 1348 1343 1337 1332 1326 1320 1314 1310 1305
1484 1481 1481 1481 1475 1474 1475 1474 1473 1472 1470 1468 1465 1463 1460 1456 1452 1448 1443 1439 1434 1429 1425 1419 1412 1405 1397 1392 1387 1380 1373 1367 1360 1353 1347 1341 1335 1329 1324 1319 1313 1308 1303 1298
1485 1483 1481 1479 1476 1474 1473 1473 1471 1469 1467 1464 1461 1459 1456 1452 1448 1444 1439 1434 1429 1424 1418 1412 1406 1398 1391 1384 1378 1373 1367 1360 1353 1346 1340 1334 1328 1322 1316 1311 1307 1301 1297 1293
1482 1483 1482 1478 1477 1476 1473 1472 1469 1467 1464 1461 1458 1455 1452 1449 1444 1439 1434 1429 1424 1418 1411 1405 1398 1391 1384 1378 1371 1366 1360 1354 1346 1339 1333 1327 1321 1315 1309 1303 1298 1294 1290 1286